Flag for Argentina Weather past 2 weeks in Bahía Blanca, Buenos Aires, Argentina

Now
52 °F

Clear.


Feels Like: 49 °F
Forecast: 47 / 58 °F
Wind: 7 mph from West

Location: Mar Del Plata Aerodrome

Current Time: Sep 20, 2014 at 5:00:53 AM

Latest Report: Sep 20, 2014 at 4:00 AM


Visibility: 10 mi

Pressure: 29.92 "Hg

Humidity: 82%

Dew point: 46 °F

Location of Bahía BlancaLocation

Historic Weather in Bahía Blanca — Graph

°F

Bahía Blanca temperature yesterday

Maximum temperature yesterday: 73 °F (at 4:00 PM)
Minimum temperature yesterday: 46 °F (at 3:00 AM)
Average temperature yesterday: 57 °F

Past Weeks' High & Low Weather Summary

 TemperatureHumidityPressure
High73 °F (Sep 19, 4:00 PM)100% (Sep 5, 6:00 AM)30.15 "Hg (Sep 5, 6:00 AM)
Low36 °F (Sep 11, 7:00 AM)34% (Sep 11, 4:00 PM)29.59 "Hg (Sep 9, 5:00 AM)
Average54 °F75%29.96 "Hg
* Reported Sep 5 4:00 AM — Sep 20 4:00 AM, Bahía Blanca, Weather by CustomWeather, © 2014

Note: Actual official high and low records may vary slightly from our data, if they occured in-between our weather recording intervals... More about our weather records

Advertising

Bahía Blanca weather history for previous 24 hours

 ConditionsComfort  
Time TempWeatherWind HumidityBarometerVisibility
4:00 AM
Sep 20
52 °FClear.7 mph82%29.92 "Hg10 mi
3:00 AM54 °FPartly cloudy.12 mph82%29.92 "Hg4 mi
2:00 AM54 °FPassing clouds.12 mph88%29.92 "Hg4 mi
1:00 AM54 °FPassing clouds.13 mph82%29.92 "Hg5 mi
12:00 AM52 °FClear.3 mph82%29.92 "Hg10 mi
11:00 PM
Sep 19
52 °FClear.5 mph77%29.89 "Hg10 mi
10:00 PM55 °FClear.5 mph67%29.89 "Hg10 mi
9:00 PM57 °FClear.6 mph63%29.89 "Hg10 mi
8:00 PM57 °FClear.6 mph67%29.89 "Hg10 mi
7:00 PM61 °FPassing clouds.10 mph52%29.86 "HgN/A
6:00 PM64 °FPassing clouds.7 mph46%29.86 "HgN/A
4:00 PM73 °FPassing clouds.8 mph57%29.83 "HgN/A
3:00 PM70 °FScattered clouds.12 mph64%29.83 "HgN/A
2:00 PM70 °FScattered clouds.9 mph60%29.86 "HgN/A
1:00 PM70 °FScattered clouds.13 mph64%29.89 "HgN/A
12:00 PM68 °FSunny.9 mph64%29.89 "Hg10 mi
11:00 AM64 °FSunny.12 mph73%29.92 "Hg10 mi
10:00 AM61 °FSunny.9 mph88%29.92 "Hg10 mi
9:00 AM54 °FScattered clouds.7 mph94%29.92 "HgN/A
8:00 AM50 °FFog.6 mph94%29.92 "Hg0 mi
7:00 AM48 °FFog.6 mph100%29.92 "Hg0 mi
6:00 AM50 °FFog.6 mph94%29.92 "Hg0 mi
5:00 AM50 °FFog.No wind100%29.89 "Hg0 mi
Weather by CustomWeather, © 2014

See weather overviewHow to use our weather pages